When you browse on this site, cookies collect data to enhance your experience and personalize the content and advertising you see.
Visit our Privacy Policy to learn more. By continuing to use the site, you agree to this use of cookies and data.

Stündliche Wetter Dsershinsk

Heute, 26 September, Samstag

Zeit Temperatur Niederschläge Wind Luftdruck Luftfeuchtigkeit
00:00 +18°C° 0 mm 4 m/S 745 mmHg 43%
01:00 +17°C° 0 mm 4 m/S 745 mmHg 44%
02:00 +17°C° 0 mm 4 m/S 745 mmHg 45%
03:00 +15°C° 0 mm 4 m/S 745 mmHg 46%
04:00 +15°C° 0 mm 4 m/S 745 mmHg 46%
05:00 +15°C° 0 mm 4 m/S 745 mmHg 47%
06:00 +15°C° 0 mm 4 m/S 745 mmHg 47%
07:00 +17°C° 0 mm 5 m/S 745 mmHg 43%
08:00 +19°C° 0 mm 6 m/S 745 mmHg 39%
09:00 +21°C° 0 mm 6 m/S 745 mmHg 34%
10:00 +23°C° 0 mm 7 m/S 745 mmHg 29%
11:00 +26°C° 0 mm 8 m/S 745 mmHg 23%
12:00 +28°C° 0 mm 8 m/S 745 mmHg 17%
13:00 +29°C° 0 mm 8 m/S 745 mmHg 17%
14:00 +29°C° 0 mm 8 m/S 745 mmHg 16%
15:00 +31°C° 0 mm 8 m/S 744 mmHg 16%
16:00 +28°C° 0 mm 7 m/S 744 mmHg 18%
17:00 +27°C° 0 mm 6 m/S 744 mmHg 20%
18:00 +26°C° 0 mm 5 m/S 744 mmHg 22%
19:00 +24°C° 0 mm 6 m/S 744 mmHg 25%
20:00 +23°C° 0 mm 6 m/S 745 mmHg 28%
21:00 +22°C° 0 mm 7 m/S 745 mmHg 31%
22:00 +21°C° 0 mm 7 m/S 745 mmHg 33%
23:00 +21°C° 0 mm 7 m/S 745 mmHg 35%

Morgen, 27 September, Sonntag

Zeit Temperatur Niederschläge Wind Luftdruck Luftfeuchtigkeit
00:00 +20°C° 0 mm 7 m/S 745 mmHg 36%
01:00 +18°C° 0 mm 7 m/S 745 mmHg 38%
02:00 +18°C° 0 mm 7 m/S 746 mmHg 40%
03:00 +17°C° 0 mm 7 m/S 746 mmHg 43%
04:00 +16°C° 0 mm 8 m/S 746 mmHg 45%
05:00 +16°C° 0 mm 8 m/S 746 mmHg 47%
06:00 +15°C° 0 mm 8 m/S 746 mmHg 49%
07:00 +16°C° 0 mm 8 m/S 746 mmHg 48%
08:00 +16°C° 0 mm 8 m/S 747 mmHg 48%
09:00 +17°C° 0 mm 9 m/S 747 mmHg 47%
10:00 +19°C° 0 mm 9 m/S 747 mmHg 43%
11:00 +22°C° 0 mm 9 m/S 747 mmHg 39%
12:00 +24°C° 0 mm 9 m/S 747 mmHg 34%
13:00 +26°C° 0 mm 9 m/S 747 mmHg 34%
14:00 +27°C° 0 mm 8 m/S 747 mmHg 34%
15:00 +28°C° 0 mm 8 m/S 747 mmHg 34%
16:00 +27°C° 0 mm 7 m/S 747 mmHg 35%
17:00 +26°C° 0 mm 6 m/S 747 mmHg 36%
18:00 +26°C° 0 mm 5 m/S 747 mmHg 37%
19:00 +24°C° 0.2 mm 6 m/S 747 mmHg 40%
20:00 +23°C° 0.2 mm 7 m/S 747 mmHg 42%
21:00 +22°C° 0.2 mm 7 m/S 748 mmHg 44%
22:00 +22°C° 0.1 mm 7 m/S 748 mmHg 46%
23:00 +21°C° 0.1 mm 7 m/S 748 mmHg 48%

übermorgen, 28 September, Montag

Zeit Temperatur Niederschläge Wind Luftdruck Luftfeuchtigkeit
00:00 +20°C° 0.1 mm 7 m/S 748 mmHg 50%
01:00 +19°C° 0.2 mm 6 m/S 748 mmHg 54%
02:00 +19°C° 0.2 mm 6 m/S 749 mmHg 58%
03:00 +17°C° 0.2 mm 5 m/S 749 mmHg 61%
04:00 +16°C° 0.1 mm 5 m/S 749 mmHg 64%
05:00 +15°C° 0.1 mm 5 m/S 749 mmHg 66%
06:00 +15°C° 0.1 mm 5 m/S 750 mmHg 69%
07:00 +15°C° 0 mm 5 m/S 750 mmHg 64%
08:00 +16°C° 0 mm 5 m/S 750 mmHg 59%
09:00 +17°C° 0 mm 5 m/S 750 mmHg 55%
10:00 +20°C° 0 mm 5 m/S 751 mmHg 50%
11:00 +21°C° 0 mm 5 m/S 751 mmHg 45%
12:00 +23°C° 0 mm 5 m/S 751 mmHg 40%
13:00 +25°C° 0 mm 5 m/S 751 mmHg 38%
14:00 +26°C° 0 mm 5 m/S 750 mmHg 36%
15:00 +27°C° 0 mm 5 m/S 750 mmHg 33%
16:00 +26°C° 0 mm 4 m/S 750 mmHg 34%
17:00 +25°C° 0 mm 4 m/S 750 mmHg 36%
18:00 +24°C° 0 mm 3 m/S 750 mmHg 37%
19:00 +22°C° 0 mm 4 m/S 750 mmHg 37%
20:00 +21°C° 0 mm 5 m/S 750 mmHg 37%
21:00 +21°C° 0 mm 6 m/S 750 mmHg 38%
22:00 +20°C° 0 mm 6 m/S 750 mmHg 39%
23:00 +20°C° 0 mm 6 m/S 750 mmHg 41%

29 September, Dienstag

Zeit Temperatur Niederschläge Wind Luftdruck Luftfeuchtigkeit
00:00 +19°C° 0 mm 6 m/S 750 mmHg 42%
01:00 +17°C° 0 mm 6 m/S 750 mmHg 45%
02:00 +17°C° 0 mm 6 m/S 750 mmHg 48%
03:00 +16°C° 0 mm 6 m/S 750 mmHg 52%
04:00 +15°C° 0 mm 6 m/S 750 mmHg 54%
05:00 +15°C° 0 mm 6 m/S 750 mmHg 56%
06:00 +14°C° 0 mm 6 m/S 750 mmHg 58%
07:00 +14°C° 0 mm 7 m/S 750 mmHg 59%
08:00 +15°C° 0 mm 7 m/S 750 mmHg 59%
09:00 +15°C° 0 mm 7 m/S 750 mmHg 60%
10:00 +16°C° 0.1 mm 7 m/S 749 mmHg 55%
11:00 +17°C° 0.1 mm 7 m/S 749 mmHg 51%
12:00 +18°C° 0.1 mm 7 m/S 749 mmHg 46%
13:00 +20°C° 0.2 mm 8 m/S 748 mmHg 43%
14:00 +21°C° 0.2 mm 8 m/S 748 mmHg 40%
15:00 +21°C° 0.2 mm 8 m/S 748 mmHg 36%
16:00 +21°C° 0 mm 8 m/S 747 mmHg 35%
17:00 +21°C° 0 mm 7 m/S 747 mmHg 34%
18:00 +21°C° 0 mm 7 m/S 747 mmHg 33%
19:00 +21°C° 0 mm 7 m/S 746 mmHg 32%
20:00 +21°C° 0 mm 8 m/S 746 mmHg 31%
21:00 +21°C° 0 mm 9 m/S 746 mmHg 30%
22:00 +19°C° 0.2 mm 9 m/S 745 mmHg 33%
23:00 +19°C° 0.2 mm 9 m/S 745 mmHg 37%

30 September, Mittwoch

Zeit Temperatur Niederschläge Wind Luftdruck Luftfeuchtigkeit
00:00 +18°C° 0.2 mm 9 m/S 745 mmHg 41%
01:00 +18°C° 0 mm 9 m/S 744 mmHg 43%
02:00 +17°C° 0 mm 8 m/S 744 mmHg 44%
03:00 +16°C° 0 mm 8 m/S 744 mmHg 46%
04:00 +16°C° 0 mm 8 m/S 744 mmHg 49%
05:00 +15°C° 0 mm 8 m/S 744 mmHg 52%
06:00 +15°C° 0 mm 8 m/S 744 mmHg 54%
07:00 +15°C° 0.1 mm 8 m/S 744 mmHg 54%
08:00 +15°C° 0.1 mm 8 m/S 744 mmHg 53%
09:00 +15°C° 0.1 mm 8 m/S 744 mmHg 52%
10:00 +16°C° 0 mm 8 m/S 744 mmHg 51%
11:00 +17°C° 0 mm 8 m/S 744 mmHg 50%
12:00 +17°C° 0 mm 8 m/S 744 mmHg 48%
13:00 +18°C° 0.1 mm 8 m/S 743 mmHg 47%
14:00 +18°C° 0.1 mm 8 m/S 743 mmHg 45%
15:00 +20°C° 0.1 mm 8 m/S 743 mmHg 44%
16:00 +20°C° 0.1 mm 8 m/S 743 mmHg 42%
17:00 +20°C° 0.1 mm 7 m/S 742 mmHg 39%
18:00 +20°C° 0.1 mm 7 m/S 742 mmHg 37%
19:00 +20°C° 0.2 mm 8 m/S 742 mmHg 37%
20:00 +20°C° 0.2 mm 8 m/S 742 mmHg 37%
21:00 +19°C° 0.2 mm 9 m/S 742 mmHg 36%
22:00 +19°C° 0 mm 9 m/S 742 mmHg 38%
23:00 +18°C° 0 mm 9 m/S 742 mmHg 40%

1 Oktober, Donnerstag

Zeit Temperatur Niederschläge Wind Luftdruck Luftfeuchtigkeit
00:00 +17°C° 0 mm 10 m/S 742 mmHg 41%
01:00 +16°C° 0.9 mm 9 m/S 742 mmHg 51%
02:00 +15°C° 0.9 mm 9 m/S 742 mmHg 61%
03:00 +12°C° 0.9 mm 9 m/S 742 mmHg 71%
04:00 +12°C° 0.8 mm 9 m/S 743 mmHg 72%
05:00 +12°C° 0.8 mm 8 m/S 743 mmHg 74%
06:00 +11°C° 0.8 mm 8 m/S 743 mmHg 76%
07:00 +12°C° 0.2 mm 8 m/S 744 mmHg 71%
08:00 +13°C° 0.2 mm 8 m/S 744 mmHg 66%
09:00 +13°C° 0.2 mm 8 m/S 744 mmHg 60%
10:00 +15°C° 0.2 mm 8 m/S 744 mmHg 63%
11:00 +15°C° 0.2 mm 8 m/S 745 mmHg 65%
12:00 +15°C° 0.2 mm 8 m/S 745 mmHg 68%
13:00 +15°C° 0.5 mm 7 m/S 745 mmHg 69%
14:00 +14°C° 0.5 mm 6 m/S 745 mmHg 71%
15:00 +14°C° 0.5 mm 5 m/S 745 mmHg 72%
16:00 +15°C° 0.2 mm 5 m/S 745 mmHg 71%
17:00 +15°C° 0.2 mm 4 m/S 745 mmHg 70%
18:00 +16°C° 0.2 mm 3 m/S 745 mmHg 69%
19:00 +16°C° 0 mm 3 m/S 746 mmHg 67%
20:00 +15°C° 0 mm 4 m/S 746 mmHg 65%
21:00 +15°C° 0 mm 4 m/S 746 mmHg 64%
22:00 +15°C° 0 mm 4 m/S 746 mmHg 65%
23:00 +15°C° 0 mm 4 m/S 746 mmHg 66%
Mehr zeigen